FW2284 Weather Reports


Display with metric or nautical units.
time (UTC)temp
F
wind
direction
speed
MPH
gust
MPH
rain 1hr
in
rain 24hr
in
rain mn
in
humidity
%
barometer
mb
20260504204526 79 224 7.0 15.0 0.00 0.10 0.10 49 1002.3
20260504203022 78 249 8.0 17.0 0.00 0.10 0.10 52 1002.5
20260504201518 77 156 6.0 14.0 0.00 0.10 0.10 59 1002.6
20260504200017 77 147 6.0 9.0 0.00 0.10 0.10 59 1002.9
20260504194513 74 205 5.0 11.0 0.00 0.10 0.10 65 1003.2
20260504193009 73 200 2.0 10.0 0.00 0.10 0.10 65 1003.5
20260504191507 71 159 5.0 9.0 0.00 0.10 0.10 68 1003.7
20260504190002 68 188 4.0 9.0 0.00 0.10 0.10 77 1004.0
20260504184600 64 179 6.0 10.0 0.00 0.10 0.10 78 1003.2
20260504183057 65 136 4.0 7.0 0.00 0.10 0.10 75 1004.1
20260504181559 66 226 2.0 6.0 0.00 0.10 0.10 73 1004.9
20260504180055 65 162 4.0 7.0 0.00 0.10 0.10 74 1004.5
20260504174554 65 139 3.0 6.0 0.00 0.10 0.10 76 1004.6
20260504173052 64 167 3.0 7.0 0.00 0.10 0.10 77 1004.8
20260504171553 63 172 2.0 9.0 0.00 0.10 0.10 81 1005.1
20260504081516 55 204 0.0 1.0 0.00 0.00 0.00 77 1008.1
20260504044538 65 205 3.0 8.0 0.00 0.00 0.00 58 1008.2
20260504043046 65 215 3.0 6.0 0.00 0.00 0.00 57 1008.5
20260504041538 66 225 1.0 5.0 0.00 0.00 0.00 56 1008.9
20260504040035 66 236 1.0 4.0 0.00 0.00 0.00 55 1009.1
20260504034535 68 221 3.0 9.0 0.00 0.00 0.00 53 1009.1
20260504033037 68 219 4.0 11.0 0.00 0.00 0.00 55 1008.9
20260504031535 67 195 2.0 5.0 0.00 0.00 0.00 57 1009.6
20260504030033 66 231 1.0 4.0 0.00 0.00 0.00 58 1009.7
20260504024535 66 140 1.0 3.0 0.00 0.00 0.00 57 1009.4
20260504023031 67 189 1.0 4.0 0.00 0.00 0.00 55 1009.4
20260504021533 68 205 1.0 4.0 0.00 0.00 0.00 54 1009.3
20260504020032 67 226 2.0 3.0 0.00 0.00 0.00 54 1009.2
20260504014537 69 335 0.0 2.0 0.00 0.00 0.00 51 1009.3
20260504013029 69 162 0.0 3.0 0.00 0.00 0.00 51 1009.0
20260504011529 70 186 1.0 2.0 0.00 0.00 0.00 49 1008.9
20260504010029 71 204 0.0 2.0 0.00 0.00 0.00 46 1008.7
20260504004528 73 209 1.0 4.0 0.00 0.00 0.00 43 1008.7
20260504003034 74 236 0.0 3.0 0.00 0.00 0.00 43 1008.7
20260504001531 75 243 0.0 4.0 0.00 0.00 0.00 40 1008.8
20260504000025 75 257 3.0 9.0 0.00 0.00 0.00 38 1008.7
20260503234525 77 282 1.0 9.0 0.00 0.00 0.00 37 1008.8
20260503233023 78 8 3.0 11.0 0.00 0.00 0.00 36 1009.0
20260503231524 78 240 3.0 9.0 0.00 0.00 0.00 36 1009.0
20260503230020 79 243 3.0 5.0 0.00 0.00 0.00 36 1009.1
20260503224518 78 233 4.0 11.0 0.00 0.00 0.00 34 1009.3
20260503223019 78 207 4.0 10.0 0.00 0.00 0.00 36 1009.3
20260503221515 78 277 3.0 13.0 0.00 0.00 0.00 37 1009.6
20260503220013 78 195 4.0 15.0 0.00 0.00 0.00 36 1009.7
20260503214515 77 256 4.0 12.0 0.00 0.00 0.00 35 1010.1
20260503213009 77 224 7.0 15.0 0.00 0.00 0.00 34 1010.1
20260503211506 77 304 6.0 15.0 0.00 0.00 0.00 36 1010.2
20260503210005 76 269 7.0 22.0 0.00 0.00 0.00 34 1010.4